Ponciano Arriaga International Airport
MMSP : now visible

Airfield :











YOU CAN JOIN US ON...

 
LOGIN :

Register | Disclaimer

   EN    FR    IT 

 









Legend :    VFR   Marginal VFR   IFR   Intensive IFR   Very Intensive IFR
Visi :
Ceiling :
>= 8 km
>= 3000ft
5 to 8 km
1000 to 3000 ft
1500m to 5 km
500 to 1000 ft
800 to 1500m
200 to 500 ft
< 800m
< 200 ft
Symbols :   Thunderstorms  Fog  Heavy snow  Heavy precipitations  Wind > 20 kt






- Airport Elevation : 6035 ft
- IATA code : SLP


MMSP - Ponciano Arriaga International

CURRENT METAR :
  • 171942Z 23004KT 15SM OVC210 28/M02 A3010 RMK 8/007 HALO

EXPIRED METARs :
  • 171840Z 00000KT 10SM OVC210 27/00 A3014 RMK 8/007 HZY HALO
  • 171740Z 00000KT 10SM SCT210 24/01 A3016 RMK SLP096 52010 971 8/001 HZY

TAF TAF MMSP
Valid from the 17 at 18:00 until the 19 at 00:00 UTC


171620Z 1718/1824 05010KT P6SM SKC TX27/1721Z TN06/1812Z
BECMG 1802/1803 00000KT
FM181200 00000KT 5SM HZ SCT015
FM181600 20010KT P6SM SCT250



MET'MAP, your aeronautical weather chart ! - Copyright ORBIFLY December 2007 - Disclaimer

ORBIFLY MET'MAP TEAM :

Programming & Development : Alexandra Zaïnal
Concept & original design : Baudouin d'Aumeries
Assistance for programming : Marc-Olivier Méhu
Technical & hardware support : Manuel Goepfert

Contact : metmap@orbifly.com




SOURCES & CREDITS :

   NOAA       Earth
Advisory